Orbital Elements at Epoch 2459200.5 (2020-Dec-17.0) TDB
Reference: JPL 18 (heliocentric ecliptic J2000)
Element | Value | Uncertainty (1-sigma) | Units |
e | .1377480204965182 | 4.8312e-08 | |
a | 2.755624174308285 | 1.6565e-08 | au |
q | 2.376042399064966 | 1.3485e-07 | au |
i | 12.61706792565397 | 5.471e-06 | deg |
node | 27.59449929047602 | 2.0053e-05 | deg |
peri | 343.2696425171202 | 2.5645e-05 | deg |
M | 346.2831558422132 | 1.6957e-05 | deg |
tp | 2459264.161975283259 (2021-Feb-18.66197528) | 7.8945e-05 | TDB |
period | 1670.81515531858 4.57 | 1.5066e-05 4.125e-08 | d yr |
n | .2154636907943043 | 1.9429e-09 | deg/d |
Q | 3.135205949551604 | 1.8847e-08 | au |
|
| | Orbit Determination Parameters
Additional Information
|